Weather Service Report


915 
ASUS43 KLMK 300610
RWRKY 
KENTUCKY REGIONAL WEATHER ROUNDUP
NATIONAL WEATHER SERVICE LOUISVILLE KY
200 AM EDT FRI SEP 30 2016

NOTE "FAIR" INDICATES FEW OR NO CLOUDS BELOW 12,000 FEET
WITH NO SIGNIFICANT WEATHER AND/OR OBSTRUCTIONS TO VISIBILITY.

KYZ001>023-026-027-061>063-070>075-300700-
WESTERN AND SOUTH CENTRAL KENTUCKY
  
CITY           SKY/WX    TMP DP  RH WIND       PRES   REMARKS
PADUCAH        CLOUDY    58  56  93 NW5       30.09F                  
HENDERSON      CLOUDY    57  52  82 NW5       30.06F                  
OWENSBORO      NOT AVBL                                               
HOPKINSVILLE   PTCLDY    55  55 100 W6        30.07F                  
BOWLING GREEN  MOCLDY    52  50  93 CALM      30.07F                  
GLASGOW        FOG      N/A N/A N/A CALM      30.07F VSB 1/4          
$$

KYZ024-025-028>034-038-045-046-053-300700-
NORTH CENTRAL KENTUCKY
  
CITY           SKY/WX    TMP DP  RH WIND       PRES   REMARKS
LOUISVILLE/SDF RAIN      57  54  89 CALM      30.06F FOG              
LOUISVILLE/LOU RAIN      57  55  93 CALM      30.07S FOG              
FORT KNOX      CLOUDY    50  50 100 CALM      30.04F FOG              
$$

KYZ035>037-039>044-047>052-055>060-089>105-300700-
NORTHEAST KENTUCKY
  
CITY           SKY/WX    TMP DP  RH WIND       PRES   REMARKS
LEXINGTON      CLOUDY    54  52  93 W3        30.05F                  
COVINGTON      CLOUDY    58  56  93 SE3       30.03F                  
FRANKFORT      CLOUDY    56  53  90 CALM      30.04F                  
$$

KYZ054-064>069-076>088-106>120-300700-
SOUTHEAST KENTUCKY
  
CITY           SKY/WX    TMP DP  RH WIND       PRES   REMARKS
JACKSON        FOG       53  53 100 CALM      30.06S VSB 1/4          
LONDON         CLEAR     49  46  90 CALM      30.05F FOG              
SOMERSET       PTCLDY    48  48 100 CALM      30.06F                  
MIDDLESBORO    CLOUDY    52  52  98 CALM      30.06F                  
MONTICELLO     FOG       49  49 100 W10       30.07F VSB 1/4          
$$

  

Return to Home page


Western Regional Climate Center, wrcc@dri.edu